Zurück zum Katalog

STARLINK-35115

AktivKommunikationSSO
NORAD 65665·PAYLOAD·🇺🇸 United States

Gestartet Sep 19, 2025 von Vandenberg Space Force Base

Loading…

Nächste Überflüge (nächste 24 Stunden)

TLE

AktuellSource: CelesTrak SupGP

Epoche: Sep 14, 2026, 23:08 UTC

1 65665C 25211P   26257.96437500  .00056679  00000+0  17618-2 0  2579
2 65665  97.2833 298.2472 0001398  82.9938 251.4720 15.33367919    15

Verfolge STARLINK-35115 in Echtzeit mit AllMySat

Download on the App Store